Location: Aressy
(43.2833°N, 0.3167°W)
Time: 21:03:40
(UTC+00:00)

Cosmos 2278 Rocket - Pass Details

Date: 28 January 2021
Orbit: 840 x 847 km, 71.0° (Epoch: 03 March)

Event Time Altitude Azimuth Distance (km) Brightness Sun altitude
Rises 18:02:39 0° 190° (S) 3,386 5.7 -10.2°
Reaches altitude 10° 18:05:06 10° 186° (S) 2,456 4.9 -10.6°
Maximum altitude 18:10:37 57° 109° (ESE) 991 2.3 -11.6°
Drops below altitude 10° 18:16:10 10° 32° (NNE) 2,476 4.2 -12.6°
Enters shadow 18:17:14 - 31° (NNE) 2,875 4.6 -12.7°
